• Em Portugal
  • Lista de países
  • Para 7 dias
  • Temperatura da água
  • Mapas de satélite
  • Mapa do tempo
  • Widgets de tempo
  • user-avatar
    Iniciar Sessão

    Previsão horária em Dhaka

    Hoje, 22 Junho, Sexta-feira

    Tempo Temperatura Precipitação Vento Pressão Humidade
    00:00 +31°C° 0 mm 2 m/s 750 mmHg 78%
    01:00 +31°C° 0 mm 2 m/s 750 mmHg 79%
    02:00 +30°C° 0 mm 3 m/s 750 mmHg 81%
    03:00 +30°C° 0 mm 3 m/s 750 mmHg 82%
    04:00 +30°C° 0 mm 3 m/s 750 mmHg 83%
    05:00 +30°C° 0 mm 3 m/s 751 mmHg 83%
    06:00 +30°C° 0 mm 3 m/s 751 mmHg 84%
    07:00 +32°C° 0 mm 4 m/s 751 mmHg 79%
    08:00 +33°C° 0 mm 4 m/s 751 mmHg 73%
    09:00 +35°C° 0 mm 5 m/s 751 mmHg 68%
    10:00 +36°C° 0 mm 4 m/s 751 mmHg 64%
    11:00 +37°C° 0 mm 4 m/s 751 mmHg 61%
    12:00 +37°C° 0 mm 4 m/s 750 mmHg 57%
    13:00 +38°C° 0 mm 4 m/s 750 mmHg 55%
    14:00 +38°C° 0 mm 4 m/s 749 mmHg 54%
    15:00 +40°C° 0 mm 4 m/s 748 mmHg 53%
    16:00 +38°C° 0,4 mm 4 m/s 748 mmHg 56%
    17:00 +37°C° 0,4 mm 4 m/s 748 mmHg 60%
    18:00 +36°C° 0,4 mm 4 m/s 748 mmHg 64%
    19:00 +35°C° 0,2 mm 4 m/s 749 mmHg 67%
    20:00 +34°C° 0,2 mm 5 m/s 749 mmHg 70%
    21:00 +33°C° 0,2 mm 6 m/s 750 mmHg 73%
    22:00 +32°C° 0,4 mm 5 m/s 750 mmHg 76%
    23:00 +32°C° 0,4 mm 5 m/s 750 mmHg 79%

    Amanhã, 23 Junho, Sábado

    Tempo Temperatura Precipitação Vento Pressão Humidade
    00:00 +30°C° 0,4 mm 5 m/s 750 mmHg 82%
    01:00 +30°C° 0 mm 5 m/s 750 mmHg 83%
    02:00 +30°C° 0 mm 4 m/s 750 mmHg 84%
    03:00 +29°C° 0 mm 4 m/s 750 mmHg 85%
    04:00 +29°C° 0 mm 4 m/s 750 mmHg 85%
    05:00 +29°C° 0 mm 4 m/s 750 mmHg 86%
    06:00 +29°C° 0 mm 4 m/s 750 mmHg 86%
    07:00 +32°C° 0 mm 4 m/s 750 mmHg 80%
    08:00 +33°C° 0 mm 4 m/s 751 mmHg 75%
    09:00 +34°C° 0 mm 4 m/s 751 mmHg 69%
    10:00 +35°C° 0,1 mm 4 m/s 751 mmHg 65%
    11:00 +36°C° 0,1 mm 4 m/s 750 mmHg 61%
    12:00 +37°C° 0,1 mm 4 m/s 750 mmHg 57%
    13:00 +38°C° 0,3 mm 4 m/s 749 mmHg 55%
    14:00 +38°C° 0,3 mm 4 m/s 749 mmHg 54%
    15:00 +38°C° 0,3 mm 4 m/s 748 mmHg 53%
    16:00 +38°C° 0,2 mm 4 m/s 748 mmHg 56%
    17:00 +37°C° 0,2 mm 4 m/s 748 mmHg 60%
    18:00 +36°C° 0,2 mm 4 m/s 747 mmHg 63%
    19:00 +35°C° 0 mm 5 m/s 748 mmHg 65%
    20:00 +34°C° 0 mm 6 m/s 748 mmHg 67%
    21:00 +33°C° 0 mm 6 m/s 748 mmHg 69%
    22:00 +33°C° 0,3 mm 6 m/s 749 mmHg 72%
    23:00 +32°C° 0,3 mm 5 m/s 749 mmHg 75%

    Depois de amanhã, 24 Junho, Domingo

    Tempo Temperatura Precipitação Vento Pressão Humidade
    00:00 +30°C° 0,3 mm 5 m/s 749 mmHg 78%
    01:00 +30°C° 0 mm 5 m/s 749 mmHg 78%
    02:00 +30°C° 0 mm 5 m/s 749 mmHg 79%
    03:00 +30°C° 0 mm 5 m/s 749 mmHg 79%
    04:00 +30°C° 0,1 mm 4 m/s 749 mmHg 80%
    05:00 +30°C° 0,1 mm 4 m/s 749 mmHg 81%
    06:00 +30°C° 0,1 mm 4 m/s 749 mmHg 82%
    07:00 +32°C° 0 mm 4 m/s 749 mmHg 78%
    08:00 +33°C° 0 mm 5 m/s 750 mmHg 73%
    09:00 +35°C° 0 mm 5 m/s 750 mmHg 69%
    10:00 +35°C° 0,1 mm 6 m/s 750 mmHg 66%
    11:00 +36°C° 0,1 mm 6 m/s 750 mmHg 63%
    12:00 +38°C° 0,1 mm 6 m/s 750 mmHg 60%
    13:00 +38°C° 0,9 mm 7 m/s 749 mmHg 60%
    14:00 +38°C° 0,9 mm 7 m/s 748 mmHg 59%
    15:00 +38°C° 0,9 mm 7 m/s 748 mmHg 58%
    16:00 +36°C° 0,1 mm 7 m/s 748 mmHg 62%
    17:00 +35°C° 0,1 mm 7 m/s 748 mmHg 66%
    18:00 +34°C° 0,1 mm 6 m/s 748 mmHg 70%
    19:00 +33°C° 0 mm 6 m/s 748 mmHg 73%
    20:00 +32°C° 0 mm 6 m/s 749 mmHg 76%
    21:00 +32°C° 0 mm 6 m/s 749 mmHg 78%
    22:00 +30°C° 0 mm 6 m/s 749 mmHg 79%
    23:00 +30°C° 0 mm 6 m/s 749 mmHg 80%

    25 Junho, Segunda-feira

    Tempo Temperatura Precipitação Vento Pressão Humidade
    00:00 +30°C° 0 mm 6 m/s 749 mmHg 81%
    01:00 +30°C° 0 mm 6 m/s 749 mmHg 82%
    02:00 +30°C° 0 mm 5 m/s 749 mmHg 83%
    03:00 +30°C° 0 mm 5 m/s 748 mmHg 84%
    04:00 +30°C° 0 mm 5 m/s 748 mmHg 85%
    05:00 +30°C° 0 mm 5 m/s 748 mmHg 85%
    06:00 +30°C° 0 mm 5 m/s 748 mmHg 86%
    07:00 +32°C° 0,3 mm 5 m/s 749 mmHg 81%
    08:00 +33°C° 0,3 mm 5 m/s 749 mmHg 75%
    09:00 +34°C° 0,3 mm 5 m/s 749 mmHg 70%
    10:00 +36°C° 0,1 mm 5 m/s 749 mmHg 65%
    11:00 +37°C° 0,1 mm 5 m/s 748 mmHg 61%
    12:00 +39°C° 0,1 mm 5 m/s 748 mmHg 56%
    13:00 +39°C° 0,1 mm 6 m/s 747 mmHg 56%
    14:00 +39°C° 0,1 mm 6 m/s 747 mmHg 55%
    15:00 +40°C° 0,1 mm 6 m/s 746 mmHg 54%
    16:00 +39°C° 0 mm 6 m/s 746 mmHg 57%
    17:00 +38°C° 0 mm 6 m/s 746 mmHg 61%
    18:00 +36°C° 0 mm 6 m/s 746 mmHg 64%
    19:00 +34°C° 0,2 mm 6 m/s 747 mmHg 67%
    20:00 +33°C° 0,2 mm 6 m/s 747 mmHg 71%
    21:00 +32°C° 0,2 mm 7 m/s 747 mmHg 74%
    22:00 +32°C° 0,3 mm 6 m/s 748 mmHg 76%
    23:00 +32°C° 0,3 mm 5 m/s 748 mmHg 79%

    26 Junho, Terça-feira

    Tempo Temperatura Precipitação Vento Pressão Humidade
    00:00 +30°C° 0,3 mm 5 m/s 748 mmHg 81%
    01:00 +30°C° 0 mm 4 m/s 748 mmHg 82%
    02:00 +30°C° 0 mm 4 m/s 747 mmHg 83%
    03:00 +30°C° 0 mm 4 m/s 747 mmHg 83%
    04:00 +30°C° 0 mm 4 m/s 747 mmHg 84%
    05:00 +30°C° 0 mm 4 m/s 747 mmHg 84%
    06:00 +30°C° 0 mm 4 m/s 748 mmHg 84%
    07:00 +32°C° 0 mm 5 m/s 748 mmHg 78%
    08:00 +33°C° 0 mm 5 m/s 748 mmHg 72%
    09:00 +35°C° 0 mm 6 m/s 749 mmHg 66%
    10:00 +36°C° 0,3 mm 6 m/s 749 mmHg 63%
    11:00 +36°C° 0,3 mm 5 m/s 748 mmHg 60%
    12:00 +37°C° 0,3 mm 5 m/s 748 mmHg 56%
    13:00 +37°C° 1,4 mm 5 m/s 748 mmHg 57%
    14:00 +37°C° 1,4 mm 5 m/s 747 mmHg 58%
    15:00 +37°C° 1,4 mm 5 m/s 747 mmHg 59%
    16:00 +36°C° 0,2 mm 5 m/s 747 mmHg 61%
    17:00 +36°C° 0,2 mm 5 m/s 747 mmHg 64%
    18:00 +35°C° 0,2 mm 5 m/s 747 mmHg 67%
    19:00 +34°C° 0 mm 5 m/s 748 mmHg 70%
    20:00 +33°C° 0 mm 6 m/s 748 mmHg 73%
    21:00 +32°C° 0 mm 6 m/s 749 mmHg 76%
    22:00 +32°C° 0 mm 5 m/s 749 mmHg 77%
    23:00 +30°C° 0 mm 5 m/s 749 mmHg 79%

    27 Junho, Quarta-feira

    Tempo Temperatura Precipitação Vento Pressão Humidade
    00:00 +30°C° 0 mm 4 m/s 749 mmHg 80%
    01:00 +30°C° 0 mm 4 m/s 749 mmHg 81%
    02:00 +30°C° 0 mm 4 m/s 749 mmHg 82%
    03:00 +29°C° 0 mm 4 m/s 749 mmHg 83%
    04:00 +29°C° 0,1 mm 4 m/s 749 mmHg 84%
    05:00 +29°C° 0,1 mm 4 m/s 749 mmHg 84%
    06:00 +29°C° 0,1 mm 4 m/s 749 mmHg 85%
    07:00 +30°C° 0,1 mm 5 m/s 749 mmHg 81%
    08:00 +32°C° 0,1 mm 6 m/s 750 mmHg 77%
    09:00 +33°C° 0,1 mm 6 m/s 750 mmHg 72%
    10:00 +34°C° 1,3 mm 6 m/s 750 mmHg 69%
    11:00 +35°C° 1,3 mm 7 m/s 749 mmHg 67%
    12:00 +36°C° 1,3 mm 7 m/s 749 mmHg 64%
    13:00 +36°C° 1,5 mm 7 m/s 749 mmHg 63%
    14:00 +36°C° 1,5 mm 7 m/s 748 mmHg 63%
    15:00 +36°C° 1,5 mm 7 m/s 748 mmHg 63%
    16:00 +35°C° 0,5 mm 7 m/s 748 mmHg 65%
    17:00 +34°C° 0,5 mm 6 m/s 748 mmHg 67%
    18:00 +34°C° 0,5 mm 6 m/s 748 mmHg 70%
    19:00 +33°C° 0 mm 6 m/s 749 mmHg 72%
    20:00 +32°C° 0 mm 6 m/s 750 mmHg 75%
    21:00 +30°C° 0 mm 5 m/s 750 mmHg 78%
    22:00 +30°C° 0 mm 5 m/s 750 mmHg 79%
    23:00 +30°C° 0 mm 5 m/s 750 mmHg 81%
    Mostrar mais